Regional Weather Roundup
Issued by NWS Midland/Odessa, TX

Skip options and go directly to product.
Home | Oldest Version | Previous Version | Current Version | All | Text Only | Save Text | Print | Product List | Glossary Off

Skip product version selection by date and time.   

126
ASUS44 KMAF 292310
RWRMAF
MIDLAND AREA WEATHER ROUNDUP
NATIONAL WEATHER SERVICE MIDLAND TX
600 PM CDT FRI APR 29 2016

...IN SOUTHWEST TEXAS AND SOUTHEAST NEW MEXICO...

CITY           SKY/WX    TMP DP  RH WIND       PRES   REMARKS
ALPINE         MOSUNNY   76  18  11 W22G30    29.87R
ANDREWS        FAIR      78  17  10 W29G36    29.70S
ARTESIA        SUNNY     77  18  10 SW25G38   29.70R
BIG SPRING     SUNNY     81  25  12 SW26G37   29.68R
CARLSBAD       SUNNY     77  14   9 W33G40    29.71S
DRYDEN           N/A     92  27   9 SW16G25   29.60S
FORT STOCKTON  SUNNY     83  16   8 W24G39    29.70S
GUAD PASS      SUNNY     67  11  11 SW30G44   29.85F
HOBBS          SUNNY     75  10   8 SW21G32   29.72S
MARFA          SUNNY     73  18  12 W23G30    29.85S
MIDLAND AIRPK  SUNNY     83  14   7 W30G37    29.69R
MIDLAND INTL   MOSUNNY   84  14   7 W29G39    29.68R
ODESSA         SUNNY     82  12   7 W30G40    29.70R
PECOS          SUNNY     81  14   8 W25G35    29.72S
PRESIDIO       FAIR      86  22   9 MISG      29.71S
SEMINOLE       SUNNY     77  17  10 W21G29    29.71S
SNYDER           N/A     83  33  16 SW22G29   29.63S
WINK           SUNNY     80  15   8 W28G38    29.70S
$$
...OTHER STATIONS IN TEXAS...

CITY           SKY/WX    TMP DP  RH WIND       PRES   REMARKS
ABILENE        SUNNY     84  46  26 W10       29.60S
AMARILLO       MOSUNNY   57  46  66 NW20      29.75R
AUSTIN         PTSUNNY   83  74  74 S14       29.58S
BROWNSVILLE    CLOUDY    81  77  88 SE17      29.60S FOG
CORPUS CHRISTI CLOUDY    83  76  79 S22       29.58F
DALLAS FTW     CLOUDY    74  65  73 SW13      29.54F
DEL RIO        MOSUNNY   89  67  47 S6        29.55F
EL PASO        MOSUNNY   74  21  13 W24G36    29.80F
HOUSTON INT    CLOUDY    80  72  76 S18G26    29.64F
LUBBOCK        MOSUNNY   73  44  35 N25G32    29.66R
SAN ANGELO     SUNNY     87  40  19 W16G22    29.61S
SAN ANTONIO    CLOUDY    83  74  74 SE12      29.59S
WACO           PTSUNNY   82  72  71 S16       29.55F
WICHITA FALLS  NOT AVBL
$$
...OTHER LOCATIONS IN NEW MEXICO...

CITY           SKY/WX    TMP DP  RH WIND       PRES   REMARKS
ALAMAGORDO     MOSUNNY   72  19  14 S12       29.77F
ALBUQUERQUE    LGT RAIN  52  36  54 N14G26    29.79S
CANNON AFB     NOT AVBL
CLOVIS         PTSUNNY   64  37  36 NW9G16    29.74S
HOLLOMAN AFB   MOSUNNY   71  21  15 SW10      29.75F
ROSWELL        SUNNY     77  17  10 W17G25    29.69S
RUIDOSO          N/A     57  18  21 SW15G23   29.85S
SANTA FE       CLOUDY    47  33  58 N16       29.80R
TRUTH OR CONSE PTSUNNY   69  23  17 W17G28    29.77F
TUCUMCARI      SUNNY     61  39  44 N14G21    29.74S
$$

USA.gov is the U.S. government's official web portal to all federal, state and local government web resources and services.